Regional Weather Roundup
Issued by NWS Newport/Morehead, NC

Current Version | Previous Version | Graphics & Text | Print | Product List | Glossary Off
Versions: 1 2 3 4 5 6 7 8 9 10 11 12 13 14 15 16 17 18 19 20 21 22 23 24 25 26 27 28 29 30 31 32 33 34 35 36 37 38 39 40 41 42 43 44 45 46 47 48 49 50

000
ASUS42 KMHX 251325
RWRMHX
WEATHER ROUNDUP FOR EASTERN NORTH CAROLINA
NATIONAL WEATHER SERVICE NEWPORT/MOREHEAD CITY NC
900 AM EDT MON SEP 25 2017

NOTE: "FAIR" INDICATES FEW OR NO CLOUDS BELOW 12,000 FEET
WITH NO SIGNIFICANT WEATHER AND/OR OBSTRUCTIONS TO VISIBILITY

NCZ015>017-031-032-045>047-102-103-251400-
NORTH COAST

CITY           SKY/WX    TMP DP  RH WIND       PRES   REMARKS
EDENTON        PTSUNNY   74  69  85 NE8G16    29.98R
ELIZABETH CITY CLOUDY    74  71  91 NE18      29.98R
KITTY HAWK     PTSUNNY   72  67  84 NE8G20    29.95R
MANTEO         CLOUDY    73  69  87 E16G23    29.96S

$$

NCZ045>047-081-094-103-104-251400-
CENTRAL COAST

CITY           SKY/WX    TMP DP  RH WIND       PRES   REMARKS
FRISCO         CLOUDY    76  73  91 NE10G24   29.91S

$$

NCZ095-097-098-100-101-251400-
SOUTHERN COAST

CITY           SKY/WX    TMP DP  RH WIND       PRES   REMARKS
BEAUFORT       CLOUDY    75  73  93 NE12      29.90R
CEDAR ISLAND   NOT AVBL
JACKSONVILLE   CLOUDY    72  70  93 N9        29.92R
PINEY ISLAND   NOT AVBL
WILMINGTON     CLOUDY    72  68  87 N10       29.92S


$$

NCZ011>013-027>030-043-044-078>080-089-090>093-098-251400-
COASTAL PLAIN

CITY           SKY/WX    TMP DP  RH WIND       PRES   REMARKS
AHOSKIE        CLOUDY    69  67  93 NE7       30.00S
CLINTON        CLOUDY    69  67  94 N7        29.97S
ELIZABETHTOWN  NOT AVBL
GOLDSBORO      CLOUDY    69  69 100 NE8       29.96R
GREENVILLE     CLOUDY    72  68  88 NE10      29.99R
HAVELOCK       CLOUDY    75  71  87 NE15      29.93S
KENANSVILLE    CLOUDY    70  66  88 NE7       29.97R
KINSTON        CLOUDY    70  66  88 N9G16     29.96S
NEW BERN       CLOUDY    73  70  90 NE12      29.95R
RICHLANDS      CLOUDY    71  68  90 NE9       29.95R
ROCKY MOUNT    CLOUDY    68  67  96 NE8       30.00R
WASHINGTON     CLOUDY    71  68  89 N6        29.97R
WHITEVILLE     CLOUDY    69  66  90 N5        29.95S

$$

AMZ130-135-150-152-154-156-158-170-250-252-270-ANZ085-086-088-633-658-670-251400-
MARINE OBSERVATIONS

STATION/POSITION TIME  TEMP    WIND        PRES    WAVE   SWELL
                       AIR SEA DIR/SP/G            HT/PER HT/PER
                 (UTC) (F)     (DEG/KT/KT) (MB)    (FT/S) (FT/S)
CHESAPEAKE LIGHT NOT AVBL
64 E VA BEACH    1250   71 70   50/ 16/ 17 1015.1   12/15  11/15
DUCK             1300   72 76   40/ 22/ 24 1014.5
2 E DUCK         1300      75                N/A     7/14   5/14
OREGON INLET     1300   73 76   30/ 16/ 21 1013.9
13E OREGON INLT  1248      75                N/A     9/14  10/14
HATTERAS CG      1300   74 77   40/ 15/ 25 1012.5
DIAMOND BUOY     1250   75 76   30/ 21/ 27 1011.3   11/15  10/15
CAPE LOOKOUT     1300   76      20/ 18/ 23 1011.6
BEAUFORT LAB     1300   75 75   20/ 12/ 15 1012.0
30 SE NEW RVR IN 1308   77      40/ 21/ 25 1011.1
30 SE NEW RVR IN NOT AVBL
27 SE WRIGHTSVLE 1308   77 80   60/ 21/ 27 1011.2
5 SE WRIGHTSVLE  1308   74 78   30/ 14/ 25 1012.4
225 S CAPE HAT   1250   81 81   10/ 35/ 45  996.4   25/13  18/13
41 SE CHARLESTON 1300   77 81   10/ 16/ 19 1011.9

$$




USA.gov is the U.S. government's official web portal to all federal, state and local government web resources and services.